Time,TemperatureF,DewpointF,PressureIn,WindDirection,WindDirectionDegrees,WindSpeedMPH,WindSpeedGustMPH,Humidity,HourlyPrecipIn,Conditions,Clouds,dailyrainin,SoftwareType,DateUTC
2013-06-18 00:00:00,77.4,62.0,29.59,WSW,253,0.0,0.0,60,0.00,,,0.00,weatherlink.com 1.10,2013-06-18 06:00:00,
2013-06-18 00:15:00,77.3,62.0,29.59,WSW,253,0.0,0.0,60,0.00,,,0.00,weatherlink.com 1.10,2013-06-18 06:15:00,
2013-06-18 00:30:00,77.4,63.0,29.59,WSW,253,0.0,0.0,61,0.00,,,0.00,weatherlink.com 1.10,2013-06-18 06:30:00,
2013-06-18 00:45:00,77.5,63.0,29.59,WSW,253,0.0,0.0,61,0.00,,,0.00,weatherlink.com 1.10,2013-06-18 06:45:00,
2013-06-18 01:00:00,77.6,63.0,29.59,WSW,253,0.0,0.0,61,0.00,,,0.00,weatherlink.com 1.10,2013-06-18 07:00:00,
2013-06-18 01:15:00,77.7,63.0,29.60,WSW,253,0.0,0.0,61,0.00,,,0.00,weatherlink.com 1.10,2013-06-18 07:15:00,
2013-06-18 01:30:00,77.8,64.0,29.60,WSW,253,0.0,0.0,62,0.00,,,0.00,weatherlink.com 1.10,2013-06-18 07:30:00,
2013-06-18 01:45:00,77.7,63.0,29.59,WSW,253,0.0,0.0,60,0.00,,,0.00,weatherlink.com 1.10,2013-06-18 07:45:00,
2013-06-18 02:00:00,77.4,63.0,29.59,WSW,253,0.0,0.0,61,0.00,,,0.00,weatherlink.com 1.10,2013-06-18 08:00:00,
2013-06-18 02:15:00,77.2,63.0,29.59,WSW,253,0.0,0.0,61,0.00,,,0.00,weatherlink.com 1.10,2013-06-18 08:15:00,
2013-06-18 02:30:00,77.3,63.0,29.58,WSW,253,0.0,0.0,62,0.00,,,0.00,weatherlink.com 1.10,2013-06-18 08:30:00,
2013-06-18 02:45:00,77.3,63.0,29.57,WSW,253,0.0,0.0,62,0.00,,,0.00,weatherlink.com 1.10,2013-06-18 08:45:00,
2013-06-18 03:00:00,77.4,63.0,29.57,WSW,253,0.0,0.0,62,0.00,,,0.00,weatherlink.com 1.10,2013-06-18 09:00:00,
2013-06-18 03:16:00,77.5,63.0,29.57,WSW,253,0.0,0.0,62,0.00,,,0.00,weatherlink.com 1.10,2013-06-18 09:16:00,
2013-06-18 03:31:00,77.6,63.0,29.57,WSW,253,0.0,0.0,62,0.00,,,0.00,weatherlink.com 1.10,2013-06-18 09:31:00,
2013-06-18 03:46:00,77.6,63.0,29.57,WSW,253,0.0,0.0,62,0.00,,,0.00,weatherlink.com 1.10,2013-06-18 09:46:00,
2013-06-18 04:01:00,77.6,63.0,29.59,WSW,253,0.0,0.0,61,0.00,,,0.00,weatherlink.com 1.10,2013-06-18 10:01:00,
2013-06-18 04:16:00,77.4,63.0,29.59,WSW,253,0.0,0.0,62,0.00,,,0.00,weatherlink.com 1.10,2013-06-18 10:16:00,
2013-06-18 04:31:00,77.3,63.0,29.59,WSW,253,0.0,0.0,62,0.00,,,0.00,weatherlink.com 1.10,2013-06-18 10:31:00,
2013-06-18 04:46:00,77.3,63.0,29.59,WSW,253,0.0,0.0,62,0.00,,,0.00,weatherlink.com 1.10,2013-06-18 10:46:00,
2013-06-18 05:01:00,77.4,64.0,29.59,WSW,253,0.0,0.0,63,0.00,,,0.00,weatherlink.com 1.10,2013-06-18 11:01:00,
2013-06-18 05:16:00,77.4,64.0,29.59,WSW,253,0.0,0.0,63,0.00,,,0.00,weatherlink.com 1.10,2013-06-18 11:16:00,
2013-06-18 05:31:00,77.4,64.0,29.61,WSW,253,0.0,0.0,63,0.00,,,0.00,weatherlink.com 1.10,2013-06-18 11:31:00,
2013-06-18 05:46:00,77.4,62.0,29.61,WSW,253,0.0,0.0,60,0.00,,,0.00,weatherlink.com 1.10,2013-06-18 11:46:00,
2013-06-18 06:01:00,77.4,63.0,29.61,WSW,253,0.0,0.0,61,0.00,,,0.00,weatherlink.com 1.10,2013-06-18 12:01:00,
2013-06-18 06:16:00,77.4,63.0,29.61,WSW,253,0.0,0.0,62,0.00,,,0.00,weatherlink.com 1.10,2013-06-18 12:16:00,
2013-06-18 06:31:00,77.3,63.0,29.61,WSW,253,0.0,0.0,62,0.00,,,0.00,weatherlink.com 1.10,2013-06-18 12:31:00,
2013-06-18 06:46:00,77.2,63.0,29.62,WSW,253,0.0,0.0,61,0.00,,,0.00,weatherlink.com 1.10,2013-06-18 12:46:00,
2013-06-18 07:01:00,77.1,63.0,29.62,WSW,253,0.0,0.0,61,0.00,,,0.00,weatherlink.com 1.10,2013-06-18 13:01:00,
2013-06-18 07:16:00,77.0,62.0,29.62,WSW,253,0.0,0.0,61,0.00,,,0.00,weatherlink.com 1.10,2013-06-18 13:16:00,
2013-06-18 07:31:00,76.9,62.0,29.62,WSW,253,0.0,0.0,61,0.00,,,0.00,weatherlink.com 1.10,2013-06-18 13:31:00,
2013-06-18 07:46:00,76.8,62.0,29.62,WSW,253,0.0,0.0,61,0.00,,,0.00,weatherlink.com 1.10,2013-06-18 13:46:00,
2013-06-18 08:01:00,76.7,62.0,29.62,WSW,253,0.0,0.0,61,0.00,,,0.00,weatherlink.com 1.10,2013-06-18 14:01:00,
2013-06-18 08:16:00,76.7,62.0,29.63,WSW,253,0.0,0.0,61,0.00,,,0.00,weatherlink.com 1.10,2013-06-18 14:16:00,
2013-06-18 08:31:00,76.7,62.0,29.62,WSW,253,0.0,0.0,61,0.00,,,0.00,weatherlink.com 1.10,2013-06-18 14:31:00,
2013-06-18 08:46:00,76.7,62.0,29.62,WSW,253,0.0,0.0,61,0.00,,,0.00,weatherlink.com 1.10,2013-06-18 14:46:00,
2013-06-18 09:01:00,76.7,62.0,29.63,WSW,253,0.0,0.0,61,0.00,,,0.00,weatherlink.com 1.10,2013-06-18 15:01:00,
2013-06-18 09:16:00,76.7,62.0,29.63,WSW,253,0.0,0.0,61,0.00,,,0.00,weatherlink.com 1.10,2013-06-18 15:16:00,
2013-06-18 09:31:00,76.7,62.0,29.63,WSW,253,0.0,0.0,61,0.00,,,0.00,weatherlink.com 1.10,2013-06-18 15:31:00,
2013-06-18 09:46:00,76.7,62.0,29.64,WSW,253,0.0,0.0,61,0.00,,,0.00,weatherlink.com 1.10,2013-06-18 15:46:00,
2013-06-18 10:01:00,76.8,62.0,29.65,WSW,253,0.0,0.0,61,0.00,,,0.00,weatherlink.com 1.10,2013-06-18 16:01:00,
2013-06-18 10:16:00,76.9,62.0,29.65,WSW,253,0.0,0.0,61,0.00,,,0.00,weatherlink.com 1.10,2013-06-18 16:16:00,
2013-06-18 10:31:00,76.9,62.0,29.65,WSW,253,0.0,0.0,61,0.00,,,0.00,weatherlink.com 1.10,2013-06-18 16:31:00,
2013-06-18 10:46:00,77.0,62.0,29.65,WSW,253,0.0,0.0,61,0.00,,,0.00,weatherlink.com 1.10,2013-06-18 16:46:00,
2013-06-18 11:01:00,77.1,62.0,29.65,WSW,253,0.0,0.0,60,0.00,,,0.00,weatherlink.com 1.10,2013-06-18 17:01:00,
2013-06-18 11:16:00,77.1,62.0,29.65,WSW,253,0.0,0.0,60,0.00,,,0.00,weatherlink.com 1.10,2013-06-18 17:16:00,
2013-06-18 11:31:00,77.2,62.0,29.64,WSW,253,0.0,0.0,60,0.00,,,0.00,weatherlink.com 1.10,2013-06-18 17:31:00,
2013-06-18 11:46:00,77.2,62.0,29.64,WSW,253,0.0,0.0,60,0.00,,,0.00,weatherlink.com 1.10,2013-06-18 17:46:00,
2013-06-18 12:01:00,77.2,62.0,29.64,WSW,253,0.0,0.0,60,0.00,,,0.00,weatherlink.com 1.10,2013-06-18 18:01:00,
2013-06-18 12:16:00,77.3,62.0,29.65,WSW,253,0.0,0.0,60,0.00,,,0.00,weatherlink.com 1.10,2013-06-18 18:16:00,
2013-06-18 12:31:00,77.3,62.0,29.64,WSW,253,0.0,0.0,60,0.00,,,0.00,weatherlink.com 1.10,2013-06-18 18:31:00,
2013-06-18 12:46:00,77.3,62.0,29.63,WSW,253,0.0,0.0,60,0.00,,,0.00,weatherlink.com 1.10,2013-06-18 18:46:00,
2013-06-18 13:01:00,77.4,62.0,29.64,WSW,253,0.0,0.0,60,0.00,,,0.00,weatherlink.com 1.10,2013-06-18 19:01:00,
2013-06-18 13:16:00,77.4,62.0,29.64,WSW,253,0.0,0.0,60,0.00,,,0.00,weatherlink.com 1.10,2013-06-18 19:16:00,
2013-06-18 13:31:00,77.4,62.0,29.64,WSW,253,0.0,0.0,60,0.00,,,0.00,weatherlink.com 1.10,2013-06-18 19:31:00,
2013-06-18 13:46:00,77.5,62.0,29.64,WSW,253,0.0,0.0,60,0.00,,,0.00,weatherlink.com 1.10,2013-06-18 19:46:00,
2013-06-18 14:01:00,77.5,62.0,29.64,WSW,253,0.0,0.0,60,0.00,,,0.00,weatherlink.com 1.10,2013-06-18 20:01:00,
2013-06-18 14:16:00,77.5,62.0,29.63,WSW,253,0.0,0.0,60,0.00,,,0.00,weatherlink.com 1.10,2013-06-18 20:16:00,
2013-06-18 14:31:00,77.5,62.0,29.64,WSW,253,0.0,0.0,60,0.00,,,0.00,weatherlink.com 1.10,2013-06-18 20:31:00,
2013-06-18 14:46:00,77.5,62.0,29.64,WSW,253,0.0,0.0,60,0.00,,,0.00,weatherlink.com 1.10,2013-06-18 20:46:00,
2013-06-18 15:01:00,77.5,62.0,29.63,WSW,253,0.0,0.0,60,0.00,,,0.00,weatherlink.com 1.10,2013-06-18 21:01:00,
2013-06-18 15:16:00,77.5,62.0,29.63,WSW,253,0.0,0.0,60,0.00,,,0.00,weatherlink.com 1.10,2013-06-18 21:16:00,
2013-06-18 15:31:00,77.5,62.0,29.63,WSW,253,0.0,0.0,60,0.00,,,0.00,weatherlink.com 1.10,2013-06-18 21:31:00,
2013-06-18 15:46:00,77.5,62.0,29.64,WSW,253,0.0,0.0,60,0.00,,,0.00,weatherlink.com 1.10,2013-06-18 21:46:00,
2013-06-18 16:01:00,77.6,63.0,29.63,WSW,253,0.0,0.0,60,0.00,,,0.00,weatherlink.com 1.10,2013-06-18 22:01:00,
2013-06-18 16:17:00,77.5,62.0,29.63,WSW,253,0.0,0.0,59,0.00,,,0.00,weatherlink.com 1.10,2013-06-18 22:17:00,
2013-06-18 16:32:00,77.4,62.0,29.63,WSW,253,0.0,0.0,60,0.00,,,0.00,weatherlink.com 1.10,2013-06-18 22:32:00,
2013-06-18 16:47:00,77.3,62.0,29.62,WSW,253,0.0,0.0,60,0.00,,,0.00,weatherlink.com 1.10,2013-06-18 22:47:00,
2013-06-18 17:02:00,77.3,62.0,29.61,WSW,253,0.0,0.0,60,0.00,,,0.00,weatherlink.com 1.10,2013-06-18 23:02:00,
2013-06-18 17:17:00,77.4,62.0,29.61,WSW,253,0.0,0.0,60,0.00,,,0.00,weatherlink.com 1.10,2013-06-18 23:17:00,
2013-06-18 17:32:00,77.4,62.0,29.60,WSW,253,0.0,0.0,60,0.00,,,0.00,weatherlink.com 1.10,2013-06-18 23:32:00,
2013-06-18 17:47:00,77.4,62.0,29.61,WSW,253,0.0,0.0,60,0.00,,,0.00,weatherlink.com 1.10,2013-06-18 23:47:00,
2013-06-18 18:02:00,77.4,62.0,29.61,WSW,253,0.0,0.0,60,0.00,,,0.00,weatherlink.com 1.10,2013-06-19 00:02:00,
2013-06-18 18:17:00,77.5,62.0,29.61,WSW,253,0.0,0.0,60,0.00,,,0.00,weatherlink.com 1.10,2013-06-19 00:17:00,
2013-06-18 18:32:00,77.5,62.0,29.62,WSW,253,0.0,0.0,60,0.00,,,0.00,weatherlink.com 1.10,2013-06-19 00:32:00,
2013-06-18 18:47:00,77.5,62.0,29.62,WSW,253,0.0,0.0,60,0.00,,,0.00,weatherlink.com 1.10,2013-06-19 00:47:00,
2013-06-18 19:02:00,77.5,62.0,29.62,WSW,253,0.0,0.0,60,0.00,,,0.00,weatherlink.com 1.10,2013-06-19 01:02:00,
2013-06-18 19:17:00,77.5,62.0,29.62,WSW,253,0.0,0.0,60,0.00,,,0.00,weatherlink.com 1.10,2013-06-19 01:17:00,
2013-06-18 19:32:00,77.5,62.0,29.61,WSW,253,0.0,0.0,60,0.00,,,0.00,weatherlink.com 1.10,2013-06-19 01:32:00,
2013-06-18 19:47:00,77.5,62.0,29.62,WSW,253,0.0,0.0,60,0.00,,,0.00,weatherlink.com 1.10,2013-06-19 01:47:00,
2013-06-18 20:02:00,77.5,62.0,29.62,WSW,253,0.0,0.0,60,0.00,,,0.00,weatherlink.com 1.10,2013-06-19 02:02:00,
2013-06-18 20:17:00,77.5,62.0,29.64,WSW,253,0.0,0.0,60,0.00,,,0.00,weatherlink.com 1.10,2013-06-19 02:17:00,
2013-06-18 20:32:00,77.5,62.0,29.64,WSW,253,0.0,0.0,60,0.00,,,0.00,weatherlink.com 1.10,2013-06-19 02:32:00,
2013-06-18 20:47:00,77.5,62.0,29.64,WSW,253,0.0,0.0,60,0.00,,,0.00,weatherlink.com 1.10,2013-06-19 02:47:00,
2013-06-18 21:02:00,77.4,62.0,29.64,WSW,253,0.0,0.0,60,0.00,,,0.00,weatherlink.com 1.10,2013-06-19 03:02:00,
2013-06-18 21:17:00,77.4,62.0,29.65,WSW,253,0.0,0.0,60,0.00,,,0.00,weatherlink.com 1.10,2013-06-19 03:17:00,
2013-06-18 21:32:00,77.4,60.0,29.66,WSW,253,0.0,0.0,56,0.00,,,0.00,weatherlink.com 1.10,2013-06-19 03:32:00,
2013-06-18 21:47:00,77.3,61.0,29.66,WSW,253,0.0,0.0,58,0.00,,,0.00,weatherlink.com 1.10,2013-06-19 03:47:00,
2013-06-18 22:02:00,77.4,62.0,29.65,WSW,253,0.0,0.0,59,0.00,,,0.00,weatherlink.com 1.10,2013-06-19 04:02:00,
2013-06-18 22:17:00,77.4,62.0,29.65,WSW,253,0.0,0.0,59,0.00,,,0.00,weatherlink.com 1.10,2013-06-19 04:17:00,
2013-06-18 22:32:00,77.4,62.0,29.65,WSW,253,0.0,0.0,60,0.00,,,0.00,weatherlink.com 1.10,2013-06-19 04:32:00,
2013-06-18 22:47:00,77.4,62.0,29.65,WSW,253,0.0,0.0,60,0.00,,,0.00,weatherlink.com 1.10,2013-06-19 04:47:00,
2013-06-18 23:02:00,77.4,62.0,29.65,WSW,253,0.0,0.0,60,0.00,,,0.00,weatherlink.com 1.10,2013-06-19 05:02:00,
2013-06-18 23:17:00,77.4,62.0,29.65,WSW,253,0.0,0.0,60,0.00,,,0.00,weatherlink.com 1.10,2013-06-19 05:17:00,
2013-06-18 23:32:00,77.4,63.0,29.66,WSW,253,0.0,0.0,61,0.00,,,0.00,weatherlink.com 1.10,2013-06-19 05:32:00,
2013-06-18 23:47:00,77.3,63.0,29.65,WSW,253,0.0,0.0,61,0.00,,,0.00,weatherlink.com 1.10,2013-06-19 05:47:00,